Terug naar catalogus

CZ-6A DEB

ActiefPO
NORAD 61320·DEBRIS·🇨🇳 China

Gelanceerd Aug 6, 2024 vanaf Taiyuan Satellite Launch Center

Loading…

Volgende Passages (komende 24 uur)

TLE

VersSource: Space-Track

Epoch: Sep 13, 2026, 23:47 UTC

1 61320U 24140UH  26256.99144617  .00000283  00000-0  11228-3 0  9995
2 61320  88.9928 263.5468 0014033 220.6844 139.3302 14.26120597106228

Volg CZ-6A DEB in realtime met AllMySat

Download on the App Store